Regional Weather Roundup
Issued by NWS

Home | Current Version | Previous Version | Text Only | Print | Product List | Glossary Off
Versions: 1 2 3 4 5 6 7 8 9 10 11 12 13 14 15 16 17 18 19 20 21 22 23 24 25 26 27 28 29 30 31 32 33 34 35 36 37 38 39 40 41 42 43 44 45 46 47 48 49 50

000
ASUS43 KOAX 300110
RWRNE

WEATHER ROUNDUP FOR NEBRASKA
NATIONAL WEATHER SERVICE OMAHA NE
800 PM CDT THU SEP 29 2016

NOTES: SATELLITE DATA IS BEING USED TO AUGMENT CLOUD COVER ABOVE
       12000 FEET.
       "FAIR" INDICATES FEW OR NO CLOUDS BELOW 12,000 FEET WITH NO
       SIGNIFICANT WEATHER AND/OR OBSTRUCTIONS TO VISIBILITY.

  * THESE STATIONS DO NOT REPORT WEATHER SUCH AS RAIN...SNOW OR FOG.

NEZ001>004-019>022-054>056-300200-
NEBRASKA PANHANDLE

CITY           SKY/WX    TMP DP  RH WIND       PRES   REMARKS
SCOTTSBLUFF    CLEAR     69  44  40 SE16      30.20S
ALLIANCE       CLEAR     63  43  48 SE10      30.24F
CHADRON        CLEAR     73  41  31 SE17      30.17F
KIMBALL        CLEAR     65  44  45 SE9       30.25F
SIDNEY         CLEAR     67  43  41 SE16      30.26S
$$

NEZ057>060-069>072-079>082-300200-
SOUTHWEST NEBRASKA

CITY           SKY/WX    TMP DP  RH WIND       PRES   REMARKS
NORTH PLATTE   CLEAR     59  41  51 SE6       30.29S
IMPERIAL       CLEAR     63  40  42 SE13      30.27F
LEXINGTON      CLEAR     60  42  52 SE6       30.31F
MCCOOK         CLEAR     60  42  51 SE8       30.29F
OGALLALA       CLEAR     66  40  38 SE8       30.27F
$$

NEZ005>010-023>029-035>040-094-300200-
NORTH CENTRAL NEBRASKA

CITY           SKY/WX    TMP DP  RH WIND       PRES   REMARKS
VALENTINE      CLEAR     64  38  38 SE12      30.27S
AINSWORTH      CLEAR     58  44  58 SE9       30.30S
BROKEN BOW     CLEAR     58  43  57 SE8       30.31S
O`NEILL        CLEAR     59  43  55 SE6       30.33S
ORD            CLEAR     60  43  53 SE5       30.32S
THEDFORD       CLEAR     60  41  49 SE7       30.30S
$$

NEZ041-046>049-061>064-073>077-083>087-300200-
SOUTH CENTRAL NEBRASKA

CITY           SKY/WX    TMP DP  RH WIND       PRES   REMARKS
GRAND ISLAND   CLEAR     58  46  64 E5        30.33F
AURORA         CLEAR     56  47  71 E5        30.33F
HASTINGS       CLEAR     58  44  60 E5        30.34S
HEBRON         CLEAR     56  48  75 CALM      30.32S
HOLDREGE       CLEAR     55  43  62 SE6       30.32F
KEARNEY *      CLEAR     57  43  58 SE7       30.32S
YORK           LGT RAIN  59  46  63 SE3       30.34R
$$

NEZ011>018-030>034-042>045-300200-
NORTHEAST NEBRASKA

CITY           SKY/WX    TMP DP  RH WIND       PRES   REMARKS
NORFOLK        CLEAR     57  46  66 SE3       30.33S
ALBION         CLEAR     57  46  66 CALM      30.34S
BLAIR          CLEAR     64  49  58 NE5       30.32S
FREMONT        CLEAR     58  48  69 CALM      30.33R HAZE
TEKAMAH        CLEAR     58  47  66 E6        30.32S
WAYNE          CLEAR     55  47  76 CALM      30.34S
$$

NEZ050>053-065>068-078-088>093-300200-
SOUTHEAST NEBRASKA

CITY           SKY/WX    TMP DP  RH WIND       PRES   REMARKS
LINCOLN        CLEAR     59  48  67 NE6       30.33S
OMAHA EPPLEY   CLEAR     61  50  67 CALM      30.32S
BEATRICE       CLEAR     60  48  63 NE3       30.32R
FALLS CITY     CLEAR     63  47  55 NE3       30.30R
NEBRASKA CITY  CLEAR     62  41  45 CALM      30.31S
PLATTSMOUTH    CLEAR     64  42  45 N3        30.32R
$$

NEZ044-045-051>053-067-300200-
OMAHA AREA

CITY           SKY/WX    TMP DP  RH WIND       PRES   REMARKS
OMAHA EPPLEY   CLEAR     61  50  67 CALM      30.32S
BLAIR          CLEAR     64  49  58 NE5       30.32S
FREMONT        CLEAR     58  48  69 CALM      30.33R HAZE
MILLARD        CLEAR     59  51  75 CALM      30.32R
OFFUTT AFB     CLEAR     54  51  90 NE2       30.31R
PLATTSMOUTH    CLEAR     64  42  45 N3        30.32R
WAHOO          FAIR      56  49  75 CALM      30.33R
$$



USA.gov is the U.S. government's official web portal to all federal, state and local government web resources and services.